METEOR 2-5 DEB, 36911

Orbit data source: Space-Track

METEOR 2-5 DEB, 36911 is space debris in LEO originally from a launch on Wed, 31 Oct 1979 UTC launched from the Plesetsk Missile And Space Complex (PKMTR). Debris objects in space refer to the collection of defunct objects orbiting the Earth. Examples of debris include non-operational satellites, rocket bodies, and fragments generated from explosions, collisions, or faulty payload assembly.

Loading next visibility...
Identifier
36911, 1979-095BC
Orbit
LEO
Country
Flag of CISCIS
Related business
Manufacturer
Unknown
Mission
Spacecraft
Bus & Motor
Unknown
Mass
Unknown
Launch date (UTC)
1979-10-31 (46 years ago)
Launch vehicle
Unknown
Launch site
Plesetsk Missile And Space Complex (PKMTR)
Object type
Payload
Rocket body
Debris
Shape & HBR
Unknown shape, 0.1 m
Radar Cross Section
Small (<0.1 m²)

Expand to show TLE details & history
Last TLE update: 23 hours ago

TLE from 23 hours ago
0 METEOR 2-5 DEB
1 36911U 79095BC  25354.14056398  .00003446  00000-0  11246-2 0  9998
2 36911  81.1774 295.0749 0010212 179.6371 180.4825 14.38451899645001
Epoch: 2025-12-20T03:22Z
TLE epoch observation values (Epoch: 2025-12-20T03:22:24.727Z)
Latitude
-0.00001°
Longitude
155.50023°
Altitude
773.848 km
Speed
7.463 km/s
True Right ascension
19h 40m 17s
True Declination
0° 00' 00"
Sunlit
Object was in daylight at epoch
Visualization orbit readout
Latitude
Unknown
Longitude
Unknown
Altitude
Unknown
Speed
Unknown
Apparent Right ascension
Unknown
Apparent Declination
Unknown
Sunlit
N/A
Visualization observer readout
Local Sidereal Time
01:11:36
Azimuth
Unknown
Elevation
Unknown
Doppler factor
Unknown
Orbital elements
Apogee altitude
768.048 km
Perigee altitude
753.467 km
Semi-major axis
7,138.894 km
Eccentricity
0.00102
Inclination
81.1774°
RAAN
295.0749°
Arg. of periapsis
179.6371°
True anomaly
180.48152°
Mean anomaly
180.4825°
Eccentric anomaly
180.48201°
Mean motion
3.59829 °/min
Orbital period
100.05 mins
BSTAR
0.0011246
Loading maneuver chart data...
Computing Atmospheric mass density...

Documentation

Showing up to 5 results
|